Location: Amsterdam
(30.7274°N, 84.4357°W)
Time: 07:31:48
(UTC+00:00)

DIWATA 2B (PO-101) - Visible Passes

Search period start: 11 March 2026 00:00
Search period end: 21 March 2026 00:00
Orbit: 559 x 575 km, 98.1° (Epoch: 10 March)

Date Brightness Start Highest point End Pass type
(mag) Time Alt. Az. Time Alt. Az. Time Alt. Az.
11 Mar ? 00:20:45 10° N 00:24:41 57° WNW 00:28:36 10° SSW visible
11 Mar ? 11:02:28 10° SE 11:06:14 39° ENE 11:10:00 10° N visible
12 Mar ? 00:21:40 10° N 00:25:35 56° WNW 00:29:30 10° SSW visible
12 Mar ? 11:03:21 10° SE 11:07:08 40° ENE 11:10:55 10° N visible
13 Mar ? 00:22:33 10° N 00:26:28 55° WNW 00:30:22 10° SSW visible
13 Mar ? 11:04:13 10° SE 11:08:01 41° ENE 11:11:48 10° N visible
14 Mar ? 00:23:26 10° N 00:27:20 53° WNW 00:31:14 10° SSW visible
14 Mar ? 11:05:05 10° SE 11:08:53 41° ENE 11:12:41 10° N visible
15 Mar ? 00:24:19 10° N 00:28:12 52° WNW 00:32:06 10° SSW visible
15 Mar ? 11:05:56 10° SE 11:09:45 42° ENE 11:13:34 10° N visible
16 Mar ? 00:25:11 10° N 00:29:04 51° WNW 00:32:57 10° SSW visible
16 Mar ? 11:06:47 10° SE 11:10:36 43° ENE 11:14:25 10° N visible
17 Mar ? 00:26:02 10° N 00:29:54 50° WNW 00:33:47 10° SSW visible
17 Mar ? 11:07:37 10° SSE 11:11:26 44° ENE 11:15:16 10° N visible
18 Mar ? 00:26:53 10° N 00:30:45 49° WNW 00:34:38 10° SSW visible
18 Mar ? 11:08:26 10° SSE 11:12:16 45° ENE 11:16:07 10° N visible
19 Mar ? 00:27:42 10° N 00:31:34 48° WNW 00:35:26 10° SSW visible
19 Mar ? 11:09:15 10° SSE 11:13:06 46° ENE 11:16:57 10° N visible
20 Mar ? 00:28:32 10° N 00:32:23 47° WNW 00:36:15 10° SSW visible
20 Mar ? 11:10:04 10° SSE 11:13:54 46° ENE 11:17:46 10° N visible
